This is the latest recevied weather packets stored in our database for station/object N8QF. If no packets are shown the sender has not sent any weather packets the latest 10 day(s).
| Time | Temp. | Humidity | Pressure | Rain* | Wind** | Luminosity | Snow |
|---|---|---|---|---|---|---|---|
| 1777392369 | 20° C | 75% | 1013.4 hPa | 22.35 mm | - | - | - |
| 1777392066 | 19.44° C | 73% | 1013.4 hPa | 22.35 mm | - | - | - |
| 1777391766 | 19.44° C | 78% | 1013.5 hPa | 22.35 mm | - | - | - |
| 1777391465 | 19.44° C | 78% | 1013.4 hPa | 22.35 mm | - | - | - |
| 1777391165 | 18.89° C | 79% | 1013.4 hPa | 22.35 mm | - | - | - |
| 1777390865 | 18.89° C | 79% | 1013.4 hPa | 22.35 mm | - | - | - |
| 1777390564 | 18.89° C | 79% | 1013.3 hPa | 22.35 mm | - | - | - |
| 1777390263 | 18.89° C | 79% | 1013.2 hPa | 22.35 mm | - | - | - |
| 1777389963 | 18.89° C | 80% | 1013.1 hPa | 22.35 mm | - | - | - |
| 1777389663 | 18.89° C | 82% | 1013.1 hPa | 22.35 mm | - | - | - |
| 1777389360 | 18.33° C | 82% | 1013.2 hPa | 22.35 mm | - | - | - |
| 1777388760 | 17.78° C | 84% | 1013.2 hPa | 22.35 mm | - | - | - |
| 1777386843 | 17.78° C | 86% | 1012.8 hPa | 22.35 mm | - | - | - |
| 1777386543 | 17.22° C | 87% | 1012.6 hPa | 22.35 mm | - | - | - |
| 1777386243 | 17.22° C | 87% | 1012.6 hPa | 22.35 mm | - | - | - |
| 1777385943 | 17.22° C | 86% | 1012.5 hPa | 22.35 mm | - | - | - |
| 1777385642 | 17.22° C | 87% | 1012.4 hPa | 22.35 mm | - | - | - |
| 1777385342 | 17.78° C | 88% | 1012.3 hPa | 22.35 mm | - | - | - |
| 1777385042 | 17.22° C | 89% | 1012.3 hPa | 22.35 mm | - | - | - |
| 1777384742 | 17.22° C | 89% | 1012.2 hPa | 22.35 mm | - | - | - |
| 1777384441 | 17.22° C | 89% | 1012.1 hPa | 22.35 mm | - | - | - |
| 1777384141 | 17.22° C | 89% | 1012 hPa | 22.35 mm | - | - | - |
| 1777383620 | 17.22° C | 90% | 1012.1 hPa | 22.35 mm | - | - | - |
| 1777383320 | 16.67° C | 90% | 1012.1 hPa | 22.35 mm | - | - | - |
| 1777383020 | 16.67° C | 90% | 1012 hPa | 22.35 mm | - | - | - |
* Rain since midnight (hover to see other rain measurements)
** Current wind speed in m/s (hover to see current wind gust speed)